Year,Month,Day,Hour,Minute,Value (Times are PST for temperature in C)
2019,08,04,00,00,15.20
2019,08,04,00,01,15.10
2019,08,04,00,02,15.10
2019,08,04,00,03,15.10
2019,08,04,00,04,15.10
2019,08,04,00,05,15.10
2019,08,04,00,06,15.00
2019,08,04,00,07,15.00
2019,08,04,00,08,15.00
2019,08,04,00,09,14.90
2019,08,04,00,10,14.90
2019,08,04,00,11,14.90
2019,08,04,00,12,14.90
2019,08,04,00,13,14.90
2019,08,04,00,14,14.90
2019,08,04,00,15,14.80
2019,08,04,00,16,14.80
2019,08,04,00,17,14.80
2019,08,04,00,18,14.70
2019,08,04,00,19,14.70
2019,08,04,00,20,14.70
2019,08,04,00,21,14.60
2019,08,04,00,22,14.60
2019,08,04,00,23,14.60
2019,08,04,00,24,14.60
2019,08,04,00,25,14.50
2019,08,04,00,26,14.50
2019,08,04,00,27,14.50
2019,08,04,00,28,14.40
2019,08,04,00,29,14.40
2019,08,04,00,30,14.40
2019,08,04,00,31,14.40
2019,08,04,00,32,14.40
2019,08,04,00,33,14.30
2019,08,04,00,34,14.30
2019,08,04,00,35,14.30
2019,08,04,00,36,14.30
2019,08,04,00,37,14.30
2019,08,04,00,38,14.30
2019,08,04,00,39,14.20
2019,08,04,00,40,14.20
2019,08,04,00,41,14.20
2019,08,04,00,42,14.20
2019,08,04,00,43,14.20
2019,08,04,00,44,14.20
2019,08,04,00,45,14.20
2019,08,04,00,46,14.10
2019,08,04,00,47,14.10
2019,08,04,00,48,14.10
2019,08,04,00,49,14.10
2019,08,04,00,50,14.10
2019,08,04,00,51,14.10
2019,08,04,00,52,14.00
2019,08,04,00,53,14.00
2019,08,04,00,54,14.00
2019,08,04,00,55,13.90
2019,08,04,00,56,13.90
2019,08,04,00,57,13.90
2019,08,04,00,58,13.90
2019,08,04,00,59,13.90
2019,08,04,01,00,13.90
2019,08,04,01,01,13.90
2019,08,04,01,02,13.90
2019,08,04,01,03,13.80
2019,08,04,01,04,13.80
2019,08,04,01,05,13.80
2019,08,04,01,06,13.80
2019,08,04,01,07,13.80
2019,08,04,01,08,13.80
2019,08,04,01,09,13.80
2019,08,04,01,10,13.80
2019,08,04,01,11,13.80
2019,08,04,01,12,13.70
2019,08,04,01,13,13.70
2019,08,04,01,14,13.70
2019,08,04,01,15,13.70
2019,08,04,01,16,13.70
2019,08,04,01,17,13.70
2019,08,04,01,18,13.70
2019,08,04,01,19,13.70
2019,08,04,01,20,13.70
2019,08,04,01,21,13.70
2019,08,04,01,22,13.70
2019,08,04,01,23,13.70
2019,08,04,01,24,13.60
2019,08,04,01,25,13.60
2019,08,04,01,26,13.60
2019,08,04,01,27,13.60
2019,08,04,01,28,13.60
2019,08,04,01,29,13.60
2019,08,04,01,30,13.60
2019,08,04,01,31,13.50
2019,08,04,01,32,13.50
2019,08,04,01,33,13.50
2019,08,04,01,34,13.50
2019,08,04,01,35,13.40
2019,08,04,01,36,13.40
2019,08,04,01,37,13.40
2019,08,04,01,38,13.40
2019,08,04,01,39,13.40
2019,08,04,01,40,13.40
2019,08,04,01,41,13.40
2019,08,04,01,42,13.40
2019,08,04,01,43,13.30
2019,08,04,01,44,13.30
2019,08,04,01,45,13.30
2019,08,04,01,46,13.30
2019,08,04,01,47,13.30
2019,08,04,01,48,13.30
2019,08,04,01,49,13.30
2019,08,04,01,50,13.30
2019,08,04,01,51,13.30
2019,08,04,01,52,13.30
2019,08,04,01,53,13.30
2019,08,04,01,54,13.30
2019,08,04,01,55,13.30
2019,08,04,01,56,13.30
2019,08,04,01,57,13.30
2019,08,04,01,58,13.30
2019,08,04,01,59,13.30
2019,08,04,02,00,13.30
2019,08,04,02,01,13.30
2019,08,04,02,02,13.30
2019,08,04,02,03,13.30
2019,08,04,02,04,13.30
2019,08,04,02,05,13.30
2019,08,04,02,06,13.30
2019,08,04,02,07,13.30
2019,08,04,02,08,13.30
2019,08,04,02,09,13.30
2019,08,04,02,10,13.30
2019,08,04,02,11,13.30
2019,08,04,02,12,13.30
2019,08,04,02,13,13.30
2019,08,04,02,14,13.30
2019,08,04,02,15,13.30
2019,08,04,02,16,13.30
2019,08,04,02,17,13.30
2019,08,04,02,18,13.30
2019,08,04,02,19,13.30
2019,08,04,02,20,13.30
2019,08,04,02,21,13.30
2019,08,04,02,22,13.20
2019,08,04,02,23,13.20
2019,08,04,02,24,13.20
2019,08,04,02,25,13.20
2019,08,04,02,26,13.20
2019,08,04,02,27,13.20
2019,08,04,02,28,13.20
2019,08,04,02,29,13.10
2019,08,04,02,30,13.10
2019,08,04,02,31,13.10
2019,08,04,02,32,13.10
2019,08,04,02,33,13.10
2019,08,04,02,34,13.10
2019,08,04,02,35,13.00
2019,08,04,02,36,13.00
2019,08,04,02,37,13.00
2019,08,04,02,38,13.00
2019,08,04,02,39,13.00
2019,08,04,02,40,12.90
2019,08,04,02,41,12.90
2019,08,04,02,42,12.90
2019,08,04,02,43,12.90
2019,08,04,02,44,12.80
2019,08,04,02,45,12.80
2019,08,04,02,46,12.80
2019,08,04,02,47,12.80
2019,08,04,02,48,12.80
2019,08,04,02,49,12.80
2019,08,04,02,50,12.70
2019,08,04,02,51,12.70
2019,08,04,02,52,12.70
2019,08,04,02,53,12.70
2019,08,04,02,54,12.70
2019,08,04,02,55,12.70
2019,08,04,02,56,12.70
2019,08,04,02,57,12.60
2019,08,04,02,58,12.60
2019,08,04,02,59,12.60
2019,08,04,03,00,12.60
2019,08,04,03,01,12.60
2019,08,04,03,02,12.60
2019,08,04,03,03,12.60
2019,08,04,03,04,12.60
2019,08,04,03,05,12.50
2019,08,04,03,06,12.50
2019,08,04,03,07,12.50
2019,08,04,03,08,12.50
2019,08,04,03,09,12.50
2019,08,04,03,10,12.40
2019,08,04,03,11,12.40
2019,08,04,03,12,12.40
2019,08,04,03,13,12.40
2019,08,04,03,14,12.40
2019,08,04,03,15,12.40
2019,08,04,03,16,12.40
2019,08,04,03,17,12.40
2019,08,04,03,18,12.40
2019,08,04,03,19,12.40
2019,08,04,03,20,12.40
2019,08,04,03,21,12.40
2019,08,04,03,22,12.40
2019,08,04,03,23,12.40
2019,08,04,03,24,12.40
2019,08,04,03,25,12.40
2019,08,04,03,26,12.40
2019,08,04,03,27,12.40
2019,08,04,03,28,12.40
2019,08,04,03,29,12.40
2019,08,04,03,30,12.40
2019,08,04,03,31,12.40
2019,08,04,03,32,12.40
2019,08,04,03,33,12.40
2019,08,04,03,34,12.40
2019,08,04,03,35,12.40
2019,08,04,03,36,12.40
2019,08,04,03,37,12.40
2019,08,04,03,38,12.30
2019,08,04,03,39,12.30
2019,08,04,03,40,12.30
2019,08,04,03,41,12.30
2019,08,04,03,42,12.30
2019,08,04,03,43,12.30
2019,08,04,03,44,12.30
2019,08,04,03,45,12.30
2019,08,04,03,46,12.30
2019,08,04,03,47,12.30
2019,08,04,03,48,12.20
2019,08,04,03,49,12.20
2019,08,04,03,50,12.20
2019,08,04,03,51,12.20
2019,08,04,03,52,12.20
2019,08,04,03,53,12.20
2019,08,04,03,54,12.20
2019,08,04,03,55,12.20
2019,08,04,03,56,12.30
2019,08,04,03,57,12.30
2019,08,04,03,58,12.30
2019,08,04,03,59,12.30
2019,08,04,04,00,12.30
2019,08,04,04,01,12.30
2019,08,04,04,02,12.30
2019,08,04,04,03,12.30
2019,08,04,04,04,12.30
2019,08,04,04,05,12.30
2019,08,04,04,06,12.40
2019,08,04,04,07,12.40
2019,08,04,04,08,12.40
2019,08,04,04,09,12.40
2019,08,04,04,10,12.40
2019,08,04,04,11,12.40
2019,08,04,04,12,12.40
2019,08,04,04,13,12.40
2019,08,04,04,14,12.40
2019,08,04,04,15,12.40
2019,08,04,04,16,12.40
2019,08,04,04,17,12.40
2019,08,04,04,18,12.40
2019,08,04,04,19,12.40
2019,08,04,04,20,12.40
2019,08,04,04,21,12.40
2019,08,04,04,22,12.40
2019,08,04,04,23,12.40
2019,08,04,04,24,12.40
2019,08,04,04,25,12.40
2019,08,04,04,26,12.40
2019,08,04,04,27,12.40
2019,08,04,04,28,12.30
2019,08,04,04,29,12.30
2019,08,04,04,30,12.30
2019,08,04,04,31,12.30
2019,08,04,04,32,12.30
2019,08,04,04,33,12.30
2019,08,04,04,34,12.30
2019,08,04,04,35,12.30
2019,08,04,04,36,12.30
2019,08,04,04,37,12.20
2019,08,04,04,38,12.20
2019,08,04,04,39,12.20
2019,08,04,04,40,12.20
2019,08,04,04,41,12.20
2019,08,04,04,42,12.20
2019,08,04,04,43,12.20
2019,08,04,04,44,12.20
2019,08,04,04,45,12.20
2019,08,04,04,46,12.20
2019,08,04,04,47,12.10
2019,08,04,04,48,12.10
2019,08,04,04,49,12.10
2019,08,04,04,50,12.10
2019,08,04,04,51,12.10
2019,08,04,04,52,12.10
2019,08,04,04,53,12.10
2019,08,04,04,54,12.10
2019,08,04,04,55,12.00
2019,08,04,04,56,12.00
2019,08,04,04,57,12.00
2019,08,04,04,58,12.00
2019,08,04,04,59,12.00
2019,08,04,05,00,12.00
2019,08,04,05,01,12.00
2019,08,04,05,02,12.00
2019,08,04,05,03,12.00
2019,08,04,05,04,12.00
2019,08,04,05,05,12.00
2019,08,04,05,06,12.00
2019,08,04,05,07,12.00
2019,08,04,05,08,12.00
2019,08,04,05,09,12.00
2019,08,04,05,10,12.00
2019,08,04,05,11,12.00
2019,08,04,05,12,12.00
2019,08,04,05,13,12.00
2019,08,04,05,14,12.00
2019,08,04,05,15,11.90
2019,08,04,05,16,12.00
2019,08,04,05,17,11.90
2019,08,04,05,18,11.90
2019,08,04,05,19,11.90
2019,08,04,05,20,11.90
2019,08,04,05,21,11.90
2019,08,04,05,22,11.90
2019,08,04,05,23,11.90
2019,08,04,05,24,11.90
2019,08,04,05,25,11.90
2019,08,04,05,26,11.90
2019,08,04,05,27,11.90
2019,08,04,05,28,11.90
2019,08,04,05,29,11.90
2019,08,04,05,30,11.90
2019,08,04,05,31,11.90
2019,08,04,05,32,11.90
2019,08,04,05,33,11.90
2019,08,04,05,34,11.80
2019,08,04,05,35,11.80
2019,08,04,05,36,11.80
2019,08,04,05,37,11.80
2019,08,04,05,38,11.80
2019,08,04,05,39,11.80
2019,08,04,05,40,11.80
2019,08,04,05,41,11.80
2019,08,04,05,42,11.80
2019,08,04,05,43,11.80
2019,08,04,05,44,11.80
2019,08,04,05,45,11.80
2019,08,04,05,46,11.80
2019,08,04,05,47,11.80
2019,08,04,05,48,11.80
2019,08,04,05,49,11.80
2019,08,04,05,50,11.80
2019,08,04,05,51,11.80
2019,08,04,05,52,11.80
2019,08,04,05,53,11.80
2019,08,04,05,54,11.80
2019,08,04,05,55,11.80
2019,08,04,05,56,11.70
2019,08,04,05,57,11.70
2019,08,04,05,58,11.70
2019,08,04,05,59,11.70
2019,08,04,06,00,11.70
2019,08,04,06,01,11.70
2019,08,04,06,02,11.70
2019,08,04,06,03,11.60
2019,08,04,06,04,11.60
2019,08,04,06,05,11.60
2019,08,04,06,06,11.60
2019,08,04,06,07,11.60
2019,08,04,06,08,11.50
2019,08,04,06,09,11.50
2019,08,04,06,10,11.50
2019,08,04,06,11,11.50
2019,08,04,06,12,11.50
2019,08,04,06,13,11.40
2019,08,04,06,14,11.40
2019,08,04,06,15,11.40
2019,08,04,06,16,11.40
2019,08,04,06,17,11.40
2019,08,04,06,18,11.40
2019,08,04,06,19,11.40
2019,08,04,06,20,11.30
2019,08,04,06,21,11.30
2019,08,04,06,22,11.30
2019,08,04,06,23,11.30
2019,08,04,06,24,11.30
2019,08,04,06,25,11.30
2019,08,04,06,26,11.30
2019,08,04,06,27,11.30
2019,08,04,06,28,11.30
2019,08,04,06,29,11.30
2019,08,04,06,30,11.40
2019,08,04,06,31,11.40
2019,08,04,06,32,11.40
2019,08,04,06,33,11.40
2019,08,04,06,34,11.40
2019,08,04,06,35,11.40
2019,08,04,06,36,11.40
2019,08,04,06,37,11.40
2019,08,04,06,38,11.40
2019,08,04,06,39,11.40
2019,08,04,06,40,11.40
2019,08,04,06,41,11.40
2019,08,04,06,42,11.50
2019,08,04,06,43,11.50
2019,08,04,06,44,11.50
2019,08,04,06,45,11.50
2019,08,04,06,46,11.60
2019,08,04,06,47,11.60
2019,08,04,06,48,11.60
2019,08,04,06,49,11.70
2019,08,04,06,50,11.70
2019,08,04,06,51,11.70
2019,08,04,06,52,11.70
2019,08,04,06,53,11.80
2019,08,04,06,54,11.80
2019,08,04,06,55,11.80
2019,08,04,06,56,11.80
2019,08,04,06,57,11.80
2019,08,04,06,58,11.90
2019,08,04,06,59,11.90
2019,08,04,07,00,11.90
2019,08,04,07,01,11.90
2019,08,04,07,02,11.90
2019,08,04,07,03,12.00
2019,08,04,07,04,12.00
2019,08,04,07,05,12.10
2019,08,04,07,06,12.10
2019,08,04,07,07,12.20
2019,08,04,07,08,12.30
2019,08,04,07,09,12.30
2019,08,04,07,10,12.40
2019,08,04,07,11,12.40
2019,08,04,07,12,12.40
2019,08,04,07,13,12.50
2019,08,04,07,14,12.50
2019,08,04,07,15,12.60
2019,08,04,07,16,12.60
2019,08,04,07,17,12.70
2019,08,04,07,18,12.70
2019,08,04,07,19,12.70
2019,08,04,07,20,12.80
2019,08,04,07,21,12.80
2019,08,04,07,22,12.90
2019,08,04,07,23,13.00
2019,08,04,07,24,13.00
2019,08,04,07,25,13.10
2019,08,04,07,26,13.20
2019,08,04,07,27,13.30
2019,08,04,07,28,13.40
2019,08,04,07,29,13.50
2019,08,04,07,30,13.60
2019,08,04,07,31,13.70
2019,08,04,07,32,13.80
2019,08,04,07,33,13.80
2019,08,04,07,34,13.90
2019,08,04,07,35,13.90
2019,08,04,07,36,14.00
2019,08,04,07,37,14.00
2019,08,04,07,38,14.10
2019,08,04,07,39,14.20
2019,08,04,07,40,14.30
2019,08,04,07,41,14.30
2019,08,04,07,42,14.40
2019,08,04,07,43,14.50
2019,08,04,07,44,14.50
2019,08,04,07,45,14.60
2019,08,04,07,46,14.70
2019,08,04,07,47,14.70
2019,08,04,07,48,14.80
2019,08,04,07,49,14.90
2019,08,04,07,50,14.90
2019,08,04,07,51,15.00
2019,08,04,07,52,15.00
2019,08,04,07,53,15.10
2019,08,04,07,54,15.20
2019,08,04,07,55,15.20
2019,08,04,07,56,15.30
2019,08,04,07,57,15.30
2019,08,04,07,58,15.40
2019,08,04,07,59,15.40
2019,08,04,08,00,15.50
2019,08,04,08,01,15.50
2019,08,04,08,02,15.60
2019,08,04,08,03,15.60
2019,08,04,08,04,15.70
2019,08,04,08,05,15.80
2019,08,04,08,06,15.80
2019,08,04,08,07,15.90
2019,08,04,08,08,16.00
2019,08,04,08,09,16.10
2019,08,04,08,10,16.10
2019,08,04,08,11,16.20
2019,08,04,08,12,16.30
2019,08,04,08,13,16.30
2019,08,04,08,14,16.40
2019,08,04,08,15,16.50
2019,08,04,08,16,16.60
2019,08,04,08,17,16.70
2019,08,04,08,18,16.80
2019,08,04,08,19,16.90
2019,08,04,08,20,17.00
2019,08,04,08,21,17.00
2019,08,04,08,22,17.10
2019,08,04,08,23,17.20
2019,08,04,08,24,17.30
2019,08,04,08,25,17.40
2019,08,04,08,26,17.40
2019,08,04,08,27,17.50
2019,08,04,08,28,17.60
2019,08,04,08,29,17.70
2019,08,04,08,30,17.80
2019,08,04,08,31,17.90
2019,08,04,08,32,17.90
2019,08,04,08,33,18.00
2019,08,04,08,34,18.10
2019,08,04,08,35,18.20
2019,08,04,08,36,18.30
2019,08,04,08,37,18.40
2019,08,04,08,38,18.50
2019,08,04,08,39,18.60
2019,08,04,08,40,18.70
2019,08,04,08,41,18.80
2019,08,04,08,42,18.90
2019,08,04,08,43,19.00
2019,08,04,08,44,19.10
2019,08,04,08,45,19.20
2019,08,04,08,46,19.20
2019,08,04,08,47,19.30
2019,08,04,08,48,19.40
2019,08,04,08,49,19.40
2019,08,04,08,50,19.50
2019,08,04,08,51,19.60
2019,08,04,08,52,19.70
2019,08,04,08,53,19.90
2019,08,04,08,54,20.00
2019,08,04,08,55,20.20
2019,08,04,08,56,20.30
2019,08,04,08,57,20.50
2019,08,04,08,58,20.70
2019,08,04,08,59,20.90
2019,08,04,09,00,21.00
2019,08,04,09,01,21.10
2019,08,04,09,02,21.20
2019,08,04,09,03,21.30
2019,08,04,09,04,21.30
2019,08,04,09,05,21.40
2019,08,04,09,06,21.50
2019,08,04,09,07,21.50
2019,08,04,09,08,21.60
2019,08,04,09,09,21.60
2019,08,04,09,10,21.60
2019,08,04,09,11,21.60
2019,08,04,09,12,21.60
2019,08,04,09,13,21.60
2019,08,04,09,14,21.60
2019,08,04,09,15,21.70
2019,08,04,09,16,21.70
2019,08,04,09,17,21.70
2019,08,04,09,18,21.80
2019,08,04,09,19,21.80
2019,08,04,09,20,21.80
2019,08,04,09,21,21.80
2019,08,04,09,22,21.80
2019,08,04,09,23,21.80
2019,08,04,09,24,21.90
2019,08,04,09,25,21.90
2019,08,04,09,26,22.00
2019,08,04,09,27,22.00
2019,08,04,09,28,22.10
2019,08,04,09,29,22.10
2019,08,04,09,30,22.00
2019,08,04,09,31,22.00
2019,08,04,09,32,22.00
2019,08,04,09,33,22.00
2019,08,04,09,34,22.00
2019,08,04,09,35,22.00
2019,08,04,09,36,22.00
2019,08,04,09,37,22.10
2019,08,04,09,38,22.20
2019,08,04,09,39,22.20
2019,08,04,09,40,22.30
2019,08,04,09,41,22.30
2019,08,04,09,42,22.30
2019,08,04,09,43,22.40
2019,08,04,09,44,22.40
2019,08,04,09,45,22.40
2019,08,04,09,46,22.40
2019,08,04,09,47,22.50
2019,08,04,09,48,22.60
2019,08,04,09,49,22.70
2019,08,04,09,50,22.70
2019,08,04,09,51,22.80
2019,08,04,09,52,22.90
2019,08,04,09,53,22.90
2019,08,04,09,54,22.80
2019,08,04,09,55,22.80
2019,08,04,09,56,22.70
2019,08,04,09,57,22.70
2019,08,04,09,58,22.60
2019,08,04,09,59,22.60
2019,08,04,10,00,22.70
2019,08,04,10,01,22.70
2019,08,04,10,02,22.70
2019,08,04,10,03,22.70
2019,08,04,10,04,22.70
2019,08,04,10,05,22.70
2019,08,04,10,06,22.70
2019,08,04,10,07,22.70
2019,08,04,10,08,22.60
2019,08,04,10,09,22.60
2019,08,04,10,10,22.60
2019,08,04,10,11,22.70
2019,08,04,10,12,22.70
2019,08,04,10,13,22.80
2019,08,04,10,14,22.70
2019,08,04,10,15,22.70
2019,08,04,10,16,22.70
2019,08,04,10,17,22.70
2019,08,04,10,18,22.70
2019,08,04,10,19,22.70
2019,08,04,10,20,22.70
2019,08,04,10,21,22.70
2019,08,04,10,22,22.70
2019,08,04,10,23,22.70
2019,08,04,10,24,22.80
2019,08,04,10,25,22.80
2019,08,04,10,26,22.80
2019,08,04,10,27,22.80
2019,08,04,10,28,22.90
2019,08,04,10,29,22.90
2019,08,04,10,30,22.90
2019,08,04,10,31,22.90
2019,08,04,10,32,23.00
2019,08,04,10,33,23.00
2019,08,04,10,34,22.90
2019,08,04,10,35,23.00
2019,08,04,10,36,23.00
2019,08,04,10,37,23.10
2019,08,04,10,38,23.10
2019,08,04,10,39,23.10
2019,08,04,10,40,23.10
2019,08,04,10,41,23.10
2019,08,04,10,42,23.10
2019,08,04,10,43,23.10
2019,08,04,10,44,23.00
2019,08,04,10,45,22.90
2019,08,04,10,46,22.80
2019,08,04,10,47,22.80
2019,08,04,10,48,22.70
2019,08,04,10,49,22.70
2019,08,04,10,50,22.80
2019,08,04,10,51,22.90
2019,08,04,10,52,23.00
2019,08,04,10,53,23.10
2019,08,04,10,54,23.10
2019,08,04,10,55,23.20
2019,08,04,10,56,23.20
2019,08,04,10,57,23.30
2019,08,04,10,58,23.30
2019,08,04,10,59,23.30
2019,08,04,11,00,23.30
2019,08,04,11,01,23.30
2019,08,04,11,02,23.20
2019,08,04,11,03,23.10
2019,08,04,11,04,23.10
2019,08,04,11,05,23.10
2019,08,04,11,06,23.20
2019,08,04,11,07,23.20
2019,08,04,11,08,23.20
2019,08,04,11,09,23.10
2019,08,04,11,10,23.10
2019,08,04,11,11,23.10
2019,08,04,11,12,23.10
2019,08,04,11,13,23.10
2019,08,04,11,14,23.10
2019,08,04,11,15,23.10
2019,08,04,11,16,23.10
2019,08,04,11,17,23.10
2019,08,04,11,18,23.10
2019,08,04,11,19,23.10
2019,08,04,11,20,23.10
2019,08,04,11,21,23.10
2019,08,04,11,22,23.10
2019,08,04,11,23,23.10
2019,08,04,11,24,23.10
2019,08,04,11,25,23.10
2019,08,04,11,26,23.20
2019,08,04,11,27,23.30
2019,08,04,11,28,23.30
2019,08,04,11,29,23.30
2019,08,04,11,30,23.30
2019,08,04,11,31,23.30
2019,08,04,11,32,23.30
2019,08,04,11,33,23.30
2019,08,04,11,34,23.40
2019,08,04,11,35,23.40
2019,08,04,11,36,23.40
2019,08,04,11,37,23.40
2019,08,04,11,38,23.40
2019,08,04,11,39,23.40
2019,08,04,11,40,23.40
2019,08,04,11,41,23.40
2019,08,04,11,42,23.40
2019,08,04,11,43,23.40
2019,08,04,11,44,23.50
2019,08,04,11,45,23.60
2019,08,04,11,46,23.60
2019,08,04,11,47,23.60
2019,08,04,11,48,23.60
2019,08,04,11,49,23.70
2019,08,04,11,50,23.70
2019,08,04,11,51,23.70
2019,08,04,11,52,23.80
2019,08,04,11,53,23.80
2019,08,04,11,54,23.80
2019,08,04,11,55,23.70
2019,08,04,11,56,23.80
2019,08,04,11,57,23.80
2019,08,04,11,58,23.90
2019,08,04,11,59,23.90
2019,08,04,12,00,23.90
2019,08,04,12,01,24.00
2019,08,04,12,02,24.00
2019,08,04,12,03,24.00
2019,08,04,12,04,24.00
2019,08,04,12,05,24.10
2019,08,04,12,06,24.10
2019,08,04,12,07,24.10
2019,08,04,12,08,24.00
2019,08,04,12,09,24.00
2019,08,04,12,10,23.90
2019,08,04,12,11,23.90
2019,08,04,12,12,24.00
2019,08,04,12,13,24.10
2019,08,04,12,14,24.10
2019,08,04,12,15,24.10
2019,08,04,12,16,24.10
2019,08,04,12,17,24.10
2019,08,04,12,18,24.10
2019,08,04,12,19,24.20
2019,08,04,12,20,24.20
2019,08,04,12,21,24.10
2019,08,04,12,22,24.10
2019,08,04,12,23,24.10
2019,08,04,12,24,24.10
2019,08,04,12,25,24.20
2019,08,04,12,26,24.20
2019,08,04,12,27,24.20
2019,08,04,12,28,24.30
2019,08,04,12,29,24.30
2019,08,04,12,30,24.30
2019,08,04,12,31,24.30
2019,08,04,12,32,24.20
2019,08,04,12,33,24.20
2019,08,04,12,34,24.10
2019,08,04,12,35,24.00
2019,08,04,12,36,24.00
2019,08,04,12,37,23.90
2019,08,04,12,38,24.00
2019,08,04,12,39,24.00
2019,08,04,12,40,24.10
2019,08,04,12,41,24.20
2019,08,04,12,42,24.30
2019,08,04,12,43,24.30
2019,08,04,12,44,24.30
2019,08,04,12,45,24.40
2019,08,04,12,46,24.40
2019,08,04,12,47,24.50
2019,08,04,12,48,24.50
2019,08,04,12,49,24.60
2019,08,04,12,50,24.70
2019,08,04,12,51,24.70
2019,08,04,12,52,24.70
2019,08,04,12,53,24.80
2019,08,04,12,54,24.80
2019,08,04,12,55,24.80
2019,08,04,12,56,24.80
2019,08,04,12,57,24.90
2019,08,04,12,58,24.90
2019,08,04,12,59,24.90
2019,08,04,13,00,24.90
2019,08,04,13,01,24.90
2019,08,04,13,02,24.90
2019,08,04,13,03,24.90
2019,08,04,13,04,25.00
2019,08,04,13,05,25.10
2019,08,04,13,06,25.10
2019,08,04,13,07,25.20
2019,08,04,13,08,25.10
2019,08,04,13,09,25.00
2019,08,04,13,10,24.90
2019,08,04,13,11,24.90
2019,08,04,13,12,25.00
2019,08,04,13,13,25.00
2019,08,04,13,14,25.00
2019,08,04,13,15,24.90
2019,08,04,13,16,24.90
2019,08,04,13,17,25.00
2019,08,04,13,18,25.10
2019,08,04,13,19,25.10
2019,08,04,13,20,25.20
2019,08,04,13,21,25.20
2019,08,04,13,22,25.30
2019,08,04,13,23,25.30
2019,08,04,13,24,25.40
2019,08,04,13,25,25.50
2019,08,04,13,26,25.60
2019,08,04,13,27,25.70
2019,08,04,13,28,25.70
2019,08,04,13,29,25.70
2019,08,04,13,30,25.60
2019,08,04,13,31,25.60
2019,08,04,13,32,25.60
2019,08,04,13,33,25.50
2019,08,04,13,34,25.50
2019,08,04,13,35,25.40
2019,08,04,13,36,25.30
2019,08,04,13,37,25.30
2019,08,04,13,38,25.30
2019,08,04,13,39,25.30
2019,08,04,13,40,25.30
2019,08,04,13,41,25.40
2019,08,04,13,42,25.50
2019,08,04,13,43,25.50
2019,08,04,13,44,25.50
2019,08,04,13,45,25.60
2019,08,04,13,46,25.50
2019,08,04,13,47,25.50
2019,08,04,13,48,25.50
2019,08,04,13,49,25.50
2019,08,04,13,50,25.50
2019,08,04,13,51,25.50
2019,08,04,13,52,25.60
2019,08,04,13,53,25.60
2019,08,04,13,54,25.60
2019,08,04,13,55,25.60
2019,08,04,13,56,25.70
2019,08,04,13,57,25.70
2019,08,04,13,58,25.80
2019,08,04,13,59,25.80
2019,08,04,14,00,25.80
2019,08,04,14,01,25.90
2019,08,04,14,02,26.00
2019,08,04,14,03,26.10
2019,08,04,14,04,26.10
2019,08,04,14,05,26.00
2019,08,04,14,06,26.00
2019,08,04,14,07,25.90
2019,08,04,14,08,25.90
2019,08,04,14,09,26.00
2019,08,04,14,10,26.00
2019,08,04,14,11,26.10
2019,08,04,14,12,26.20
2019,08,04,14,13,26.20
2019,08,04,14,14,26.20
2019,08,04,14,15,26.20
2019,08,04,14,16,26.10
2019,08,04,14,17,26.10
2019,08,04,14,18,26.00
2019,08,04,14,19,26.10
2019,08,04,14,20,26.10
2019,08,04,14,21,26.20
2019,08,04,14,22,26.20
2019,08,04,14,23,26.20
2019,08,04,14,24,26.30
2019,08,04,14,25,26.30
2019,08,04,14,26,26.30
2019,08,04,14,27,26.30
2019,08,04,14,28,26.30
2019,08,04,14,29,26.20
2019,08,04,14,30,26.30
2019,08,04,14,31,26.30
2019,08,04,14,32,26.30
2019,08,04,14,33,26.30
2019,08,04,14,34,26.30
2019,08,04,14,35,26.30
2019,08,04,14,36,26.30
2019,08,04,14,37,26.30
2019,08,04,14,38,26.30
2019,08,04,14,39,26.40
2019,08,04,14,40,26.40
2019,08,04,14,41,26.40
2019,08,04,14,42,26.40
2019,08,04,14,43,26.40
2019,08,04,14,44,26.40
2019,08,04,14,45,26.30
2019,08,04,14,46,26.30
2019,08,04,14,47,26.30
2019,08,04,14,48,26.20
2019,08,04,14,49,26.20
2019,08,04,14,50,26.20
2019,08,04,14,51,26.30
2019,08,04,14,52,26.40
2019,08,04,14,53,26.40
2019,08,04,14,54,26.50
2019,08,04,14,55,26.60
2019,08,04,14,56,26.50
2019,08,04,14,57,26.50
2019,08,04,14,58,26.50
2019,08,04,14,59,26.60
2019,08,04,15,00,26.60
2019,08,04,15,01,26.70
2019,08,04,15,02,26.70
2019,08,04,15,03,26.70
2019,08,04,15,04,26.80
2019,08,04,15,05,26.90
2019,08,04,15,06,26.90
2019,08,04,15,07,26.90
2019,08,04,15,08,27.00
2019,08,04,15,09,27.00
2019,08,04,15,10,27.10
2019,08,04,15,11,27.20
2019,08,04,15,12,27.30
2019,08,04,15,13,27.30
2019,08,04,15,14,27.30
2019,08,04,15,15,27.20
2019,08,04,15,16,27.20
2019,08,04,15,17,27.20
2019,08,04,15,18,27.30
2019,08,04,15,19,27.20
2019,08,04,15,20,27.20
2019,08,04,15,21,27.10
2019,08,04,15,22,27.10
2019,08,04,15,23,27.10
2019,08,04,15,24,27.10
2019,08,04,15,25,27.20
2019,08,04,15,26,27.30
2019,08,04,15,27,27.30
2019,08,04,15,28,27.30
2019,08,04,15,29,27.40
2019,08,04,15,30,27.50
2019,08,04,15,31,27.60
2019,08,04,15,32,27.60
2019,08,04,15,33,27.60
2019,08,04,15,34,27.60
2019,08,04,15,35,27.60
2019,08,04,15,36,27.60
2019,08,04,15,37,27.60
2019,08,04,15,38,27.60
2019,08,04,15,39,27.60
2019,08,04,15,40,27.60
2019,08,04,15,41,27.60
2019,08,04,15,42,27.60
2019,08,04,15,43,27.70
2019,08,04,15,44,27.70
2019,08,04,15,45,27.80
2019,08,04,15,46,27.80
2019,08,04,15,47,27.90
2019,08,04,15,48,27.90
2019,08,04,15,49,27.80
2019,08,04,15,50,27.90
2019,08,04,15,51,27.90
2019,08,04,15,52,27.90
2019,08,04,15,53,28.00
2019,08,04,15,54,28.00
2019,08,04,15,55,28.10
2019,08,04,15,56,28.10
2019,08,04,15,57,28.10
2019,08,04,15,58,28.00
2019,08,04,15,59,27.80
2019,08,04,16,00,27.80
2019,08,04,16,01,27.80
2019,08,04,16,02,27.80
2019,08,04,16,03,27.90
2019,08,04,16,04,28.00
2019,08,04,16,05,28.10
2019,08,04,16,06,28.10
2019,08,04,16,07,28.10
2019,08,04,16,08,28.00
2019,08,04,16,09,28.00
2019,08,04,16,10,27.90
2019,08,04,16,11,28.00
2019,08,04,16,12,28.10
2019,08,04,16,13,28.10
2019,08,04,16,14,28.20
2019,08,04,16,15,28.20
2019,08,04,16,16,28.20
2019,08,04,16,17,28.20
2019,08,04,16,18,28.20
2019,08,04,16,19,28.10
2019,08,04,16,20,28.10
2019,08,04,16,21,28.10
2019,08,04,16,22,28.10
2019,08,04,16,23,28.10
2019,08,04,16,24,28.10
2019,08,04,16,25,28.20
2019,08,04,16,26,28.10
2019,08,04,16,27,28.10
2019,08,04,16,28,28.00
2019,08,04,16,29,28.00
2019,08,04,16,30,27.90
2019,08,04,16,31,27.80
2019,08,04,16,32,27.80
2019,08,04,16,33,27.80
2019,08,04,16,34,27.90
2019,08,04,16,35,27.90
2019,08,04,16,36,28.00
2019,08,04,16,37,28.10
2019,08,04,16,38,28.10
2019,08,04,16,39,28.20
2019,08,04,16,40,28.20
2019,08,04,16,41,28.20
2019,08,04,16,42,28.20
2019,08,04,16,43,28.10
2019,08,04,16,44,28.10
2019,08,04,16,45,28.20
2019,08,04,16,46,28.20
2019,08,04,16,47,28.20
2019,08,04,16,48,28.30
2019,08,04,16,49,28.30
2019,08,04,16,50,28.30
2019,08,04,16,51,28.30
2019,08,04,16,52,28.30
2019,08,04,16,53,28.20
2019,08,04,16,54,28.20
2019,08,04,16,55,28.20
2019,08,04,16,56,28.20
2019,08,04,16,57,28.20
2019,08,04,16,58,28.20
2019,08,04,16,59,28.30
2019,08,04,17,00,28.30
2019,08,04,17,01,28.30
2019,08,04,17,02,28.30
2019,08,04,17,03,28.20
2019,08,04,17,04,28.20
2019,08,04,17,05,28.10
2019,08,04,17,06,28.00
2019,08,04,17,07,27.90
2019,08,04,17,08,27.90
2019,08,04,17,09,27.80
2019,08,04,17,10,27.80
2019,08,04,17,11,27.70
2019,08,04,17,12,27.70
2019,08,04,17,13,27.70
2019,08,04,17,14,27.80
2019,08,04,17,15,27.80
2019,08,04,17,16,27.90
2019,08,04,17,17,28.00
2019,08,04,17,18,28.00
2019,08,04,17,19,28.10